Location: Cambroso
(45.2833°N, 12.0850°E)
Time: 18:34:08
(UTC+00:00)

Cosmos 1844 Rocket - Pass Details

Date: 21 January 2021
Orbit: 826 x 843 km, 71.0° (Epoch: 03 March)

Event Time Altitude Azimuth Distance (km) Brightness Sun altitude
Rises 17:50:11 0° 209° (SSW) 3,387 6.4 -18.5°
Reaches altitude 10° 17:52:37 10° 211° (SSW) 2,456 5.6 -19.0°
Maximum altitude 17:58:16 76° 297° (WNW) 870 2.8 -19.9°
Enters shadow 18:02:51 16° 22° (NNE) 2,063 4.4 -20.7°
